Regional Weather Roundup
Issued by NWS Upton, NY

Current Version | Previous Version | Text Only | Print | Product List | Glossary On
Versions: 1 2 3 4 5 6 7 8 9 10 11 12 13 14 15 16 17 18 19 20 21 22 23 24 25 26 27 28 29 30 31 32 33 34 35 36 37 38 39 40 41 42 43 44 45 46 47 48 49 50
000 ASUS41 KOKX 271105 RWROKX REGIONAL WEATHER ROUNDUP NATIONAL WEATHER SERVICE NEW YORK NY 700 AM EDT TUE SEP 27 2016 NOTE: "FAIR" INDICATES FEW OR NO CLOUDS BELOW 12,000 FEET WITH NO SIGNIFICANT WEATHER AND/OR OBSTRUCTIONS TO VISIBILITY. NYZ071-072-176-178-NJZ106-104-271200- NEW YORK CITY METRO AREA CITY SKY/WX TMP DP RH WIND PRES REMARKS Central Park LGT RAIN 64 62 93 W6 29.93S FOG LaGuardia APRT LGT RAIN 67 62 84 W12 29.90R Kennedy INTL CLOUDY 67 63 87 W13 29.91S Newark/Liberty LGT RAIN 65 62 90 W8 29.91R Bronx Bot Gard N/A 64 61 88 W3 29.91R Wall St Helipt CLOUDY 66 64 94 W7 29.91S Teterboro LGT RAIN 65 61 87 W3 29.90R FOG $$ NYZ177-179-078>081-271200- LONG ISLAND NEW YORK CITY SKY/WX TMP DP RH WIND PRES REMARKS Farmingdale CLOUDY 67 64 90 W8 29.91R MacArthur/ISP CLOUDY 67 65 93 W8 29.90R Shirley CLOUDY 67 66 97 W5 29.91R Riverhead NOT AVBL Westhampton CLOUDY 67 64 90 W13 29.92R Southampton N/A 68 66 94 W7 29.87R Bridgehampton N/A 66 64 94 CALM 29.76R East Hampton LGT RAIN 67 65 94 SW12 29.90R Montauk N/A 68 67 96 SW10G16 29.91S $$ NYZ052-065-067-271200- HUDSON VALLEY CITY SKY/WX TMP DP RH WIND PRES REMARKS White Plains CLOUDY 63 61 93 W7 29.91R Newburgh MOCLDY 59 59 100 W7 29.92S Montgomery CLOUDY 58 58 100 CALM 29.91S FOG Poughkeepsie CLOUDY 60 59 96 CALM 29.90S Albany CLOUDY 58 56 93 CALM 29.91R $$ NJZ001-105-106-008-010-013-015-019>022-104-271200- NEW JERSEY CITY SKY/WX TMP DP RH WIND PRES REMARKS Newark/Liberty LGT RAIN 65 62 90 W8 29.91R Teterboro LGT RAIN 65 61 87 W3 29.90R FOG Caldwell CLOUDY 63 62 97 CALM 29.92R Morristown CLOUDY 63 61 94 NW5 29.92R Somerville CLOUDY 63 60 90 CALM 29.90S Linden NOT AVBL Sussex MOCLDY 58 58 100 CALM 29.92S Abdover N/A 59 58 96 CALM 29.92S Trenton CLOUDY 64 62 93 W5 29.92R Millville LGT RAIN 67 67 100 W8 29.94R Atlantic City LGT RAIN 68 66 93 W6 29.93R FOG Wrightstown CLOUDY 66 65 96 W7 29.90R Toms River LGT RAIN 67 66 97 W8 29.93R Belmar CLOUDY 66 65 96 W7 29.93R $$ PAZ047>061-062-071-271200- EASTERN PENNSYLVANIA CITY SKY/WX TMP DP RH WIND PRES REMARKS Philadelphia CLOUDY 67 63 87 W9 29.94R Allentown CLOUDY 60 57 89 SW3 29.93R FOG Scranton CLOUDY 59 58 96 W5 29.93R $$ CTZ002-004>006-009-010-012-RIZ004-006-007-MAZ004-011-015-271200- SOUTHERN NEW ENGLAND IN CT CITY SKY/WX TMP DP RH WIND PRES REMARKS Bradley INTL CLOUDY 61 59 93 CALM 29.89S FOG Hartford LGT RAIN 62 62 100 CALM 29.89S Danbury LGT RAIN 61 60 97 W5 29.92S Wtrbury/Oxford CLOUDY 61 57 88 CALM 29.92R FOG Bridgeport CLOUDY 67 64 90 W7 29.90R Meriden CLOUDY 65 62 90 CALM 29.89S New Haven CLOUDY 67 65 93 VRB3 29.90R Chester CLOUDY 66 64 94 W5 29.89S Groton LGT RAIN 70 66 87 W12G22 29.88R Wilimantic LGT RAIN 60 60 100 N3 29.90S FOG IN RI CITY SKY/WX TMP DP RH WIND PRES REMARKS Providence RAIN 65 63 93 S6 29.89F FOG Block Island CLOUDY 66 65 96 SW20G25 29.91S FOG Westerly CLOUDY 69 64 84 SW18G28 29.89F IN MA CITY SKY/WX TMP DP RH WIND PRES REMARKS Boston LGT RAIN 60 60 100 CALM 29.90F FOG Worcester LGT RAIN 58 56 93 W5 29.91S FOG Westfield CLOUDY 58 58 100 NW3 29.90R Provincetown CLOUDY 67 61 81 S10G18 29.91F Nantucket CLOUDY 67 62 84 S16 29.95F $$ ANZ330-335-338-340-345-350-353-355-271200- COASTAL MARINE OBSERVATIONS STATION/POSITION TIME SKY/WX TEMP WIND PRES VSBY WAVE AIR SEA DIR/SP/G HT/PER (UTC) (F) (DEG/KT/KT) (MB) (MI) (FT/S) NY HARB ENTRANCE 0950 70 71 240/ 16/ 19 1012.0 4/ 5 20S FIRE ISLAND 0950 69 69 220/ 19/ 23 1011.9 6/ 6 GREAT SOUTH BAY 1030 69 69 280/ 12/ 16 N/A 23 SSW MONTAUK P 0950 68 68 210/ 19/ 23 1012.7 4/ 5 15 E BARNEGAT LI 1000 71 N/A 5/ 6 HUDSON CANYON 0950 71 69 1013.4 3/ 5 KINGS POINT 1030 67 72 1012.5 EXECUTION ROCKS 1045 67 260/ 10/ 14 N/A CENTRAL LI SOUND 0953 69 72 240/ 16/ 17 N/A 2/ 3 EASTERN LI SOUND NOT AVBL ROBBINS REEF 1030 65 290/ 11/ 13 1012.8 $$ >>>>>>>>>>>>>>>>>>>>>>>>>>>> KEY <<<<<<<<<<<<<<<<<<<<<<<<<<< > < > SKY/WX - Sky Condition/Present Weather < > TMP - Temperature in Fahrenheit < > DP - Dew Point in Fahrenheit < > RH - Relative Humidity in Percent < > WIND - Direction (from) and Speed in MPH < > PRES - Mean Sea Level Pressure (inches of Hg) < > WCI - Wind Chill Index < > VSB - VISIBILITY IN MILES < > HX - HEAT INDEX < > TC - TEMPERATURE IN CELSIUS < > VRB - VARIABLE WIND DIRECTION < > < >>>>>>>>>>>>>>>>>>>>>>>>>>>> KEY <<<<<<<<<<<<<<<<<<<<<<<<<<<

USA.gov is the U.S. government's official web portal to all federal, state and local government web resources and services.